KUIPER-00413

导读 | 豆包AI

KUIPER-00413(NORAD编号68928)是美国亚马逊“柯伊伯计划”(Project Kuiper)星座中的一颗互联网卫星,属于亚马逊打造的第一代近地轨道卫星互联网系统,核心目标是为全球提供高速低延迟宽带互联网服务,与SpaceX星链系统形成竞争。 该卫星运行在近地轨道,柯伊伯计划整体规划将部署超过3200颗卫星,分三层轨道构建星座,KUIPER-00413当前处于在轨运行状态,是亚马逊推进全球卫星互联网组网的重要组成部分,助力拓展全球互联网覆盖范围。

Basic Information
目录编号:
68928
目录名称:
KUIPER-00413
国际标识:
2026-098K
轨道中心:
EARTH
卫星名称:
KUIPER-00413
卫星全名:
KUIPER-00413
卫星状态:
在轨 (已飞行25 天)
发射日期:
2026-04-30 UTC
国别 :
美国 (US)
星等 :
--
Orbit Information
数据来源 国际轨道数据 AOE轨道数据
星历时间 2026-05-24T11:16:06+0800
1天前
查看轨道信息
2026-05-24T02:00:00+0800
1天前
查看轨道信息
半长轴 6854.464km 6854.406km
偏心率 0.0025218 0.0025228
轨道倾角 51.873° 51.873°
近地点辐角 75.658° 74.593°
升交点赤经 184.290° 186.136°
平近点角 284.720° 317.617°
近地点 459.041km 458.976km
远地点 493.613km 493.562km
周期 94.128分钟 94.127分钟
每日圈数 15.298277 15.298472
Detailed Information
使用方式:
暂无
2D Orbit Map
3D Orbit Map
Orbit Altitude Analysis Chart
Orbit Inclination Analysis Chart
Orbit Comprehensive Analysis Chart
View Comprehensive Chart